User: anonymous   Login
Location: Glion
(46.4330°N, 6.9246°E)
Time: 14:40:52
(UTC+00:00)
Language:

CZ-4B R/B - Orbit

View from above orbital plane
View from above orbital plane
View from above satellite
View from above satellite

Ground track
Ground track

The orbit data is extracted from the following two-line orbital elements,

1 29093U 06015B   21127.12415943  .00003505  00000-0  64466-4 0  9990
2 29093  97.6346 317.1339 0048806 227.0138 132.7017 15.48670994836636
Epoch (UTC): 07 May 2021 02:58:47
Eccentricity: 0.0048806
inclination: 97.6346°
perigee height: 387 km
apogee height: 454 km
right ascension of ascending node: 317.1339°
argument of perigee: 227.0138°
revolutions per day: 15.48670994
mean anomaly at epoch: 132.7017°
orbit number at epoch: 83663

The dashed part of the orbit path shows where the satellite is in the earth's shadow,  

DLR